Home > Weather > Phnom Penh > Past weeks

Flag for Cambodia Past Weather in Phnom Penh, Cambodia — Yesterday and Last 2 Weeks

Now
82 °F

Passing clouds.


Feels Like: 92 °F
Forecast: 78 / 94 °F
Wind: 1 mph from North

Location: Phnom-Penh / Pochentong

Current Time: Aug 28, 2016 at 9:12:05 PM

Latest Report: Aug 28, 2016 at 8:30 PM


Visibility: 6 mi

Pressure: 29.74 "Hg

Humidity: 89%

Dew Point: 79 °F

Location of Phnom PenhLocation

Past Weather in Phnom Penh — Graph

°F

Phnom Penh Temperature Yesterday

Maximum temperature yesterday: 95 °F (at 1:00 PM)
Minimum temperature yesterday: 81 °F (at 12:30 AM)
Average temperature yesterday: 87 °F

High & Low Weather Summary for the Past Weeks

 TemperatureHumidityPressure
High99 °F (Aug 22, 2:00 PM)100% (Aug 21, 6:00 PM)29.92 "Hg (Aug 21, 6:00 PM)
Low75 °F (Aug 21, 5:30 PM)39% (Aug 22, 2:00 PM)29.53 "Hg (Aug 18, 3:00 PM)
Average86 °F73%29.66 "Hg
* Reported Aug 13 8:00 PM — Aug 28 8:00 PM, Phnom Penh, Weather by CustomWeather, © 2016

Note: Actual official high and low records may vary slightly from our data, if they occured in-between our weather recording intervals... More about our weather records

Advertising

Phnom Penh Weather History for the Previous 24 Hours

Scroll right to see more
 ConditionsComfort  
Time TempWeatherWind HumidityBarometerVisibility
8:00 PM
Sun, Aug 28
82 °FLight rain. Passing clouds.5 mph89%29.74 "Hg6 mi
7:30 PM84 °FPartly cloudy.6 mph84%29.71 "Hg6 mi
7:00 PM86 °FPartly cloudy.9 mph79%29.68 "Hg6 mi
6:30 PM86 °FPartly cloudy.9 mph75%29.68 "Hg6 mi
6:00 PM88 °FBroken clouds.8 mph66%29.53 "HgN/A
5:30 PM88 °FScattered clouds.6 mph70%29.65 "HgN/A
5:00 PM91 °FScattered clouds.6 mph63%29.62 "HgN/A
4:30 PM93 °FScattered clouds.5 mph49%29.62 "HgN/A
3:30 PM93 °FBroken clouds.3 mph56%29.68 "HgN/A
3:00 PM93 °FScattered clouds.5 mph59%29.68 "HgN/A
2:30 PM91 °FScattered clouds.7 mph59%29.68 "HgN/A
2:00 PM93 °FScattered clouds.6 mph56%29.68 "HgN/A
1:30 PM93 °FScattered clouds.5 mph56%29.71 "HgN/A
1:00 PM91 °FScattered clouds.5 mph63%29.71 "HgN/A
12:30 PM91 °FScattered clouds.6 mph59%29.74 "HgN/A
12:00 PM88 °FScattered clouds.8 mph70%29.74 "HgN/A
11:30 AM88 °FScattered clouds.9 mph75%29.77 "HgN/A
11:00 AM90 °FPartly sunny.8 mph71%29.77 "HgN/A
10:30 AM90 °FPartly sunny.7 mph71%29.80 "HgN/A
10:00 AM88 °FPartly sunny.7 mph75%29.80 "HgN/A
9:30 AM88 °FPartly sunny.7 mph70%29.80 "HgN/A
9:00 AM86 °FScattered clouds.9 mph79%29.80 "HgN/A
8:30 AM86 °FScattered clouds.5 mph75%29.80 "HgN/A
8:00 AM84 °FScattered clouds.6 mph79%29.80 "HgN/A
7:30 AM82 °FPassing clouds.3 mph89%29.80 "HgN/A
7:00 AM82 °FPassing clouds.2 mph89%29.77 "HgN/A
6:30 AM82 °FPassing clouds.2 mph89%29.77 "HgN/A
6:00 AM82 °FPassing clouds.1 mph89%29.74 "HgN/A
2:30 AM81 °FPassing clouds.3 mph100%29.74 "Hg6 mi
2:00 AM81 °FPassing clouds.5 mph94%29.77 "Hg6 mi
1:30 AM81 °FPassing clouds.3 mph94%29.77 "Hg6 mi
1:00 AM81 °FPassing clouds.3 mph94%29.77 "Hg6 mi
12:30 AM81 °FPassing clouds.3 mph94%29.80 "Hg6 mi
12:00 AM81 °FPassing clouds.3 mph94%29.80 "Hg6 mi
11:30 PM
Sat, Aug 27
82 °FLight rain. Passing clouds.6 mph89%29.83 "Hg6 mi
11:00 PM82 °FLight rain. Passing clouds.3 mph89%29.80 "Hg6 mi
10:30 PM82 °FLight rain. Passing clouds.3 mph89%29.80 "Hg6 mi
10:00 PM82 °FLight rain. Passing clouds.3 mph89%29.77 "Hg6 mi
9:30 PM82 °FLight rain. Passing clouds.1 mph84%29.77 "Hg6 mi
9:00 PM82 °FLight rain. Passing clouds.2 mph84%29.77 "Hg6 mi
Weather by CustomWeather, © 2016

See weather overviewHow to use our weather pages